Terminal Aerodrome Forecast
Issued by NWS San Angelo, TX

Home | Current Version | Previous Version | Text Only | Print | Product List | Glossary On
Versions: 1 2 3 4 5 6 7 8 9 10 11 12 13 14 15 16 17
534
FTUS44 KSJT 012328
TAFABI
TAF
KABI 012328Z 0200/0224 02011G20KT P6SM VCSH OVC050
     FM020200 36011KT P6SM OVC040
     FM021500 01011KT P6SM BKN120=

USA.gov is the U.S. government's official web portal to all federal, state and local government web resources and services.